When you browse on this site, cookies collect data to enhance your experience and personalize the content and advertising you see.
Visit our Privacy Policy to learn more. By continuing to use the site, you agree to this use of cookies and data.
  • En España
  • Lista de países
  • Para 7 días
  • Temperatura del agua
  • El tiempo en el mapa
  • Informadores
  • user-avatar
    Iniciar sesión

    Tiempo cada hora Campo Grande

    Hoy, 28 Febrero, Viernes

    Tiempo Temperatura Precipitaciones Viento Presión Humedad
    00:00 +20°C° 0 mm 2 mps 709 mmHg 87%
    01:00 +20°C° 0 mm 2 mps 709 mmHg 88%
    02:00 +20°C° 0 mm 2 mps 709 mmHg 90%
    03:00 +21°C° 0 mm 1 mps 709 mmHg 92%
    04:00 +20°C° 0 mm 1 mps 709 mmHg 93%
    05:00 +20°C° 0 mm 1 mps 709 mmHg 94%
    06:00 +21°C° 0 mm 2 mps 710 mmHg 91%
    07:00 +23°C° 0 mm 2 mps 710 mmHg 88%
    08:00 +25°C° 0 mm 3 mps 711 mmHg 85%
    09:00 +26°C° 0.1 mm 3 mps 711 mmHg 80%
    10:00 +27°C° 0.1 mm 3 mps 712 mmHg 75%
    11:00 +28°C° 0.1 mm 3 mps 712 mmHg 69%
    12:00 +29°C° 0.2 mm 3 mps 711 mmHg 69%
    13:00 +29°C° 0.2 mm 3 mps 711 mmHg 69%
    14:00 +29°C° 0.2 mm 3 mps 710 mmHg 68%
    15:00 +29°C° 0.2 mm 3 mps 710 mmHg 72%
    16:00 +28°C° 0.2 mm 3 mps 709 mmHg 75%
    17:00 +28°C° 0.2 mm 3 mps 709 mmHg 78%
    18:00 +26°C° 0 mm 3 mps 709 mmHg 82%
    19:00 +25°C° 0 mm 3 mps 709 mmHg 85%
    20:00 +24°C° 0 mm 3 mps 710 mmHg 89%
    21:00 +22°C° 0 mm 3 mps 710 mmHg 89%
    22:00 +22°C° 0 mm 3 mps 710 mmHg 89%
    23:00 +21°C° 0 mm 3 mps 711 mmHg 89%

    Mañana, 29 Febrero, Sábado

    Tiempo Temperatura Precipitaciones Viento Presión Humedad
    00:00 +21°C° 0 mm 3 mps 710 mmHg 89%
    01:00 +20°C° 0 mm 3 mps 710 mmHg 90%
    02:00 +20°C° 0 mm 2 mps 710 mmHg 90%
    03:00 +20°C° 0 mm 2 mps 710 mmHg 90%
    04:00 +19°C° 0 mm 2 mps 710 mmHg 90%
    05:00 +19°C° 0 mm 2 mps 710 mmHg 91%
    06:00 +20°C° 0 mm 3 mps 711 mmHg 88%
    07:00 +21°C° 0 mm 3 mps 711 mmHg 85%
    08:00 +24°C° 0 mm 3 mps 712 mmHg 83%
    09:00 +25°C° 0 mm 3 mps 712 mmHg 76%
    10:00 +27°C° 0 mm 3 mps 712 mmHg 69%
    11:00 +29°C° 0 mm 3 mps 712 mmHg 62%
    12:00 +29°C° 0 mm 3 mps 712 mmHg 60%
    13:00 +29°C° 0 mm 4 mps 711 mmHg 58%
    14:00 +30°C° 0 mm 4 mps 710 mmHg 56%
    15:00 +29°C° 0 mm 4 mps 710 mmHg 62%
    16:00 +28°C° 0 mm 4 mps 710 mmHg 68%
    17:00 +27°C° 0 mm 4 mps 709 mmHg 74%
    18:00 +26°C° 0 mm 4 mps 710 mmHg 75%
    19:00 +24°C° 0 mm 3 mps 710 mmHg 76%
    20:00 +22°C° 0 mm 3 mps 710 mmHg 77%
    21:00 +21°C° 0 mm 3 mps 710 mmHg 77%
    22:00 +21°C° 0 mm 3 mps 710 mmHg 76%
    23:00 +20°C° 0 mm 3 mps 710 mmHg 76%

    Pasado mañana, 1 Marzo, Domingo

    Tiempo Temperatura Precipitaciones Viento Presión Humedad
    00:00 +20°C° 0 mm 3 mps 710 mmHg 79%
    01:00 +20°C° 0 mm 3 mps 710 mmHg 81%
    02:00 +20°C° 0 mm 3 mps 709 mmHg 84%
    03:00 +19°C° 0 mm 3 mps 710 mmHg 86%
    04:00 +19°C° 0 mm 3 mps 710 mmHg 89%
    05:00 +19°C° 0 mm 3 mps 710 mmHg 92%
    06:00 +20°C° 0 mm 4 mps 710 mmHg 90%
    07:00 +21°C° 0 mm 4 mps 711 mmHg 89%
    08:00 +22°C° 0 mm 5 mps 711 mmHg 88%
    09:00 +23°C° 0 mm 5 mps 711 mmHg 84%
    10:00 +25°C° 0 mm 4 mps 711 mmHg 81%
    11:00 +26°C° 0 mm 4 mps 711 mmHg 77%
    12:00 +26°C° 0 mm 4 mps 711 mmHg 75%
    13:00 +27°C° 0 mm 4 mps 711 mmHg 72%
    14:00 +28°C° 0 mm 4 mps 710 mmHg 70%
    15:00 +27°C° 0.1 mm 4 mps 710 mmHg 73%
    16:00 +26°C° 0.1 mm 4 mps 709 mmHg 76%
    17:00 +26°C° 0.1 mm 4 mps 709 mmHg 79%
    18:00 +25°C° 0 mm 4 mps 709 mmHg 83%
    19:00 +22°C° 0 mm 4 mps 709 mmHg 86%
    20:00 +21°C° 0 mm 4 mps 710 mmHg 90%
    21:00 +21°C° 0 mm 4 mps 710 mmHg 90%
    22:00 +21°C° 0 mm 4 mps 710 mmHg 91%
    23:00 +20°C° 0 mm 4 mps 710 mmHg 91%

    2 Marzo, Lunes

    Tiempo Temperatura Precipitaciones Viento Presión Humedad
    00:00 +20°C° 0 mm 4 mps 710 mmHg 92%
    01:00 +20°C° 0 mm 5 mps 709 mmHg 92%
    02:00 +20°C° 0 mm 5 mps 709 mmHg 93%
    03:00 +20°C° 0 mm 5 mps 709 mmHg 92%
    04:00 +19°C° 0 mm 4 mps 709 mmHg 91%
    05:00 +19°C° 0 mm 4 mps 709 mmHg 90%
    06:00 +20°C° 0 mm 4 mps 710 mmHg 88%
    07:00 +20°C° 0 mm 5 mps 710 mmHg 85%
    08:00 +21°C° 0 mm 5 mps 711 mmHg 83%
    09:00 +22°C° 0 mm 5 mps 711 mmHg 80%
    10:00 +23°C° 0 mm 4 mps 711 mmHg 78%
    11:00 +23°C° 0 mm 4 mps 711 mmHg 76%
    12:00 +25°C° 0 mm 4 mps 710 mmHg 76%
    13:00 +25°C° 0 mm 4 mps 710 mmHg 75%
    14:00 +26°C° 0 mm 4 mps 710 mmHg 74%
    15:00 +25°C° 0.1 mm 3 mps 709 mmHg 76%
    16:00 +25°C° 0.1 mm 3 mps 709 mmHg 78%
    17:00 +25°C° 0.1 mm 3 mps 708 mmHg 80%
    18:00 +24°C° 0 mm 3 mps 708 mmHg 84%
    19:00 +21°C° 0 mm 3 mps 709 mmHg 88%
    20:00 +20°C° 0 mm 3 mps 709 mmHg 92%
    21:00 +20°C° 0 mm 4 mps 709 mmHg 92%
    22:00 +20°C° 0 mm 4 mps 709 mmHg 92%
    23:00 +20°C° 0 mm 4 mps 709 mmHg 92%

    3 Marzo, Martes

    Tiempo Temperatura Precipitaciones Viento Presión Humedad
    00:00 +20°C° 0 mm 4 mps 709 mmHg 93%
    01:00 +19°C° 0 mm 4 mps 708 mmHg 93%
    02:00 +19°C° 0 mm 4 mps 708 mmHg 94%
    03:00 +19°C° 0 mm 4 mps 708 mmHg 93%
    04:00 +19°C° 0 mm 4 mps 708 mmHg 93%
    05:00 +20°C° 0 mm 4 mps 708 mmHg 92%
    06:00 +20°C° 0 mm 4 mps 709 mmHg 90%
    07:00 +21°C° 0 mm 4 mps 709 mmHg 89%
    08:00 +21°C° 0 mm 4 mps 710 mmHg 87%
    09:00 +22°C° 0 mm 4 mps 710 mmHg 84%
    10:00 +24°C° 0 mm 3 mps 710 mmHg 81%
    11:00 +25°C° 0 mm 3 mps 710 mmHg 78%
    12:00 +25°C° 0 mm 3 mps 709 mmHg 75%
    13:00 +26°C° 0 mm 3 mps 709 mmHg 72%
    14:00 +27°C° 0 mm 3 mps 709 mmHg 69%
    15:00 +27°C° 0 mm 3 mps 708 mmHg 72%
    16:00 +26°C° 0 mm 3 mps 708 mmHg 75%
    17:00 +26°C° 0 mm 3 mps 708 mmHg 78%
    18:00 +25°C° 0 mm 3 mps 708 mmHg 82%
    19:00 +22°C° 0 mm 3 mps 708 mmHg 87%
    20:00 +21°C° 0 mm 3 mps 708 mmHg 91%
    21:00 +21°C° 0 mm 3 mps 709 mmHg 91%
    22:00 +21°C° 0 mm 3 mps 709 mmHg 90%
    23:00 +21°C° 0 mm 3 mps 709 mmHg 90%

    4 Marzo, Miércoles

    Tiempo Temperatura Precipitaciones Viento Presión Humedad
    00:00 +20°C° 0 mm 3 mps 709 mmHg 91%
    01:00 +20°C° 0 mm 3 mps 709 mmHg 92%
    02:00 +20°C° 0 mm 3 mps 708 mmHg 93%
    03:00 +20°C° 0 mm 2 mps 708 mmHg 93%
    04:00 +19°C° 0 mm 2 mps 708 mmHg 94%
    05:00 +19°C° 0 mm 2 mps 709 mmHg 95%
    06:00 +20°C° 0 mm 2 mps 709 mmHg 91%
    07:00 +22°C° 0 mm 3 mps 710 mmHg 87%
    08:00 +24°C° 0 mm 3 mps 711 mmHg 83%
    09:00 +26°C° 0 mm 3 mps 711 mmHg 76%
    10:00 +27°C° 0 mm 2 mps 711 mmHg 69%
    11:00 +29°C° 0 mm 2 mps 711 mmHg 62%
    12:00 +29°C° 0.1 mm 2 mps 711 mmHg 61%
    13:00 +29°C° 0.1 mm 2 mps 710 mmHg 61%
    14:00 +30°C° 0.1 mm 2 mps 710 mmHg 61%
    15:00 +29°C° 0.2 mm 2 mps 709 mmHg 65%
    16:00 +28°C° 0.2 mm 3 mps 709 mmHg 70%
    17:00 +28°C° 0.2 mm 3 mps 709 mmHg 75%
    18:00 +26°C° 0 mm 3 mps 709 mmHg 78%
    19:00 +25°C° 0 mm 3 mps 709 mmHg 82%
    20:00 +22°C° 0 mm 3 mps 709 mmHg 86%
    21:00 +22°C° 0 mm 3 mps 710 mmHg 86%
    22:00 +21°C° 0 mm 3 mps 710 mmHg 87%
    23:00 +21°C° 0 mm 3 mps 710 mmHg 88%
    Mostrar más